Location: Newark
(48.4472°N, 1.4892°E)
Time: 13:46:33
(UTC+00:00)

Transit 4A - Pass Details

Date: 22 January 2021
Orbit: 866 x 978 km, 66.8° (Epoch: 01 March)

Event Time Altitude Azimuth Distance (km) Brightness Sun altitude
Exits shadow 04:08:15 32° 146° (SE) 1,527 9.1 -33.9°
Drops below altitude 10° 04:11:15 10° 147° (SSE) 2,583 10.5 -33.4°
Sets 04:13:43 0° 147° (SSE) 3,505 11.2 -33.0°
